Regional Weather Roundup
Issued by NWS

Home | Current Version | Previous Version | Graphics & Text | Print | Product List | Glossary On
Versions: 1 2 3 4 5 6 7 8 9 10 11 12 13 14 15 16 17 18 19 20 21 22 23 24 25 26 27
000
ASUS45 KBOU 191707
RWRCO

WEATHER ROUNDUP FOR COLORADO
NATIONAL WEATHER SERVICE DENVER/BOULDER CO
1000 AM MST THU JAN 19 2017

NOTE: "FAIR" INDICATES FEW OR NO CLOUDS BELOW 12000 FEET WITH NO
SIGNIFICANT WEATHER AND/OR OBSTRUCTIONS TO VISIBILITY.

COZ001>005-013-030-031-191800-
...NORTHWEST COLORADO...

CITY           SKY/WX    TMP DP  RH WIND       PRES   REMARKS
CRAIG          FAIR      11   5  77 W5        29.84F WCI   3
HAYDEN         FAIR      18   9  68 E9        29.82F WCI   6
MEEKER         CLOUDY    23  17  78 CALM      29.83S
MOUNT WERNER   NOT AVBL
STEAMBOAT SPGS FAIR       9   6  88 CALM      29.82S
WALDEN           N/A    N/A N/A N/A SE7       29.79S
$$

COZ006>008-011-191800-
...WEST CENTRAL VALLEYS...

CITY           SKY/WX    TMP DP  RH WIND       PRES   REMARKS
GRAND JUNCTION PTSUNNY   34  26  72 E16       29.85F WCI  24
MONTROSE       FAIR      31  20  63 S3        29.90F
EAGLE          CLOUDY    16  12  86 CALM      29.93F FOG
RIFLE          FAIR      26  20  77 CALM      29.88F
DELTA          FAIR      33  24  68 NE6       29.90F WCI  28
NUCLA          CLOUDY    36  19  51 CALM      29.92S
$$

COZ017>023-064>068-191800-
...SOUTHWEST COLORADO...

CITY           SKY/WX    TMP DP  RH WIND       PRES   REMARKS
DURANGO        CLOUDY    27  25  92 CALM      29.93F
CORTEZ         CLOUDY    32  27  81 E7        29.92F WCI  26
PAGOSA SPRINGS PTSUNNY   30  23  76 CALM      29.93S
TELLURIDE      NOT AVBL
WOLF CREEK PAS   N/A     18  16  93 SW9       29.93S WCI   6
$$

COZ009-010-012-014-032>034-037-058>063-191800-
...CENTRAL COLORADO...

CITY           SKY/WX    TMP DP  RH WIND       PRES   REMARKS
ASPEN          FAIR      21  13  71 S3        29.82F
BUENA VISTA    FAIR      13   8  80 W3        29.78S
COPPER MTN     FAIR      32   5  32 S7        29.84S WCI  26
BERTHOUD PASS  NOT AVBL
COTTONWOOD PAS FAIR      36   5  27 NW12G23   29.77S
GUNNISON       LGT SNOW   5   2  87 E5        29.97F FOG     WCI  -4
KREMMLING      CLOUDY   N/A N/A N/A CALM      29.92S FOG
LEADVILLE      FAIR      28   6  39 N3        29.77F
MONARCH PASS   LGT SNOW  18  10  73 MISG      29.92S
SALIDA         FAIR      35  15  43 W9G20     29.83F WCI  28
SUNLIGHT       FAIR      19  14  79 S13G21    29.86S WCI   7
WILKERSON PASS FAIR      32   0  25 NW8       29.82R WCI  25
$$

COZ069>075-191800-
...SAN LUIS VALLEY/SANGRE DE CRISTO MOUNTAINS...

CITY           SKY/WX    TMP DP  RH WIND       PRES   REMARKS
ALAMOSA        CLOUDY    20  19  96 CALM      29.91R
LA VETA PASS   FOG       18  14  86 NE38G46   29.75F VSB 3/4 WCI  -4
SAGUACHE       CLOUDY    21  19  93 CALM      29.90S
$$

COZ035-036-038>040-191800-
...NORTHERN COLORADO FRONT RANGE...

CITY           SKY/WX    TMP DP  RH WIND       PRES   REMARKS
DENVER INTL AP FAIR      44  22  41 SE8       29.61S
DMNS CITY PARK   N/A     46  14  28 E8        29.60S
AURORA         MOSUNNY   44  18  35 SE7       29.62R
FRONT RANGE AP MOSUNNY   45  23  42 SE6       29.62F
ERIE MUNI ARPT FAIR      38  24  56 CALM      29.61S
BOULDER MUN AP FAIR      43  18  36 CALM      29.60S
CENTENNIAL     FAIR      43  21  41 S6        29.61F
BROOMFIELD     SUNNY     41  19  42 CALM      29.61S
FORT COLLINS   FAIR      34  25  69 CALM      29.62S
LONGMONT       FAIR      43  26  50 CALM      29.62S
$$

COZ041-046-047-076>085-087-088-191800-
...PIKES PEAK/PALMER DIVIDE AND SOUTHERN FOOTHILLS...

CITY           SKY/WX    TMP DP  RH WIND       PRES   REMARKS
COLO. SPRINGS  FAIR      48  10  21 S6        29.65F
A. F. ACADEMY  FAIR      45  13  27 CALM      29.64F
SCHRIEVER AFB  NOT AVBL
ELLICOTT       FAIR     N/A N/A N/A CALM      29.64R
FALCON         FAIR      47   8  19 SW6       29.67S
FORT CARSON    SUNNY     48  18  29 S2        29.64F
LIMON          FAIR      43  23  45 NW6       29.63S
MONUMENT HILL  FAIR      43  14  31 SW3       29.66F
TRINIDAD       FAIR      30  19  63 W8        29.66S WCI  22
$$

COZ042>045-048>051-090-091-191800-
...NORTHEAST COLORADO...

CITY           SKY/WX    TMP DP  RH WIND       PRES   REMARKS
GREELEY ARPT   FAIR      33  26  75 CALM      29.63F
AKRON          FAIR      35  23  61 W10       29.61S WCI  27
BURLINGTON     FAIR      38  27  64 NW7       29.61S
WRAY           FAIR      36  28  75 CALM      29.63R
STERLING       FAIR      28  25  86 S7        29.62S WCI  21
HOLYOKE        FAIR      41  28  60 NW6       29.62R
FORT MORGAN    FAIR      31  26  81 W8        29.62F WCI  24
$$

COZ086-089-092>099-191800-
...SOUTHEAST COLORADO...

CITY           SKY/WX    TMP DP  RH WIND       PRES   REMARKS
PUEBLO         FAIR      36  27  69 CALM      29.64S
LA JUNTA       FAIR      32  24  72 W13       29.64R WCI  22
LAMAR          FAIR      29  24  82 W9        29.62S WCI  20
SPRINGFIELD      N/A     43  24  47 NW17G26   29.60R
$$




USA.gov is the U.S. government's official web portal to all federal, state and local government web resources and services.